Location: Brantley
(31.5822°N, 86.2569°W)
Time: 21:19:06
(UTC+00:00)

Injun/Solrad 3 - Pass Details

Date: 21 February 2026
Orbit: 872 x 984 km, 66.8° (Epoch: 8 March)

Event Time Altitude Azimuth Distance (km) Brightness Sun altitude
Rises 03:24:35 0° 308° (NW) 3,624 11.6 -48.7°
Reaches altitude 10° 03:28:51 10° 280° (W) 2,697 10.8 -49.5°
Enters shadow 03:29:20 11° 276° (W) 2,637 10.7 -49.6°
Maximum altitude 03:31:16 12° 258° (WSW) 2,533 - -50.0°
Drops below altitude 10° 03:33:42 10° 235° (SW) 2,713 - -50.5°
Sets 03:38:03 0° 207° (SSW) 3,668 - -51.3°
